Regional Weather Roundup
Issued by NWS

Home | Current Version | Previous Version | Text Only | Print | Product List | Glossary On
Versions: 1 2 3 4 5 6 7 8 9 10 11 12 13 14 15 16 17 18 19 20 21 22 23 24 25 26 27 28 29 30 31 32 33 34 35 36 37 38 39 40 41 42 43 44 45 46 47 48 49 50
000
ASUS43 KDTX 260410
RWRMI
MICHIGAN HOURLY REGIONAL WEATHER ROUNDUP
NATIONAL WEATHER SERVICE DETROIT/PONTIAC MI
1200 AM EDT SAT JUL 26 2014

NOTE: "FAIR" INDICATES FEW OR NO CLOUDS BELOW 12,000 FEET WITH NO
SIGNIFICANT WEATHER AND/OR OBSTRUCTION TO VISIBILITY.

MIZ047>049-052>055-059>063-066>070-074>076-081>083-260500-
SOUTHEAST LOWER MICHIGAN

CITY           SKY/WX    TMP DP  RH WIND       PRES   REMARKS
ADRIAN         MOCLDY    65  60  84 CALM      29.99S
ALMA           PTCLDY    61  57  87 S5        29.95S
ANN ARBOR      PTCLDY    62  55  77 CALM      29.98S
BAD AXE        CLOUDY    63  58  82 CALM      29.94F
CARO           CLOUDY    67  62  84 CALM      29.93F
DETROIT CITY   MOCLDY    72  54  53 SW5       29.97S
DETROIT        MOCLDY    67  58  72 S7        29.98S
FLINT          PTCLDY    66  55  67 SW6       29.96R
GROSSE ILE     CLOUDY    68  61  77 SW3       29.97S
HILLSDALE      PTCLDY    63  61  94 CALM      29.99S
HOWELL         PTCLDY    64  54  72 SW3       29.97F

CITY           SKY/WX    TMP DP  RH WIND       PRES   REMARKS
JACKSON        PTCLDY    63  57  81 CALM      29.98S
LAMBERTVILLE   PTCLDY    64  61  88 CALM      29.99S
LANSING        PTCLDY    65  56  72 S8        29.96F
LAPEER         CLOUDY    65  56  71 SW6       29.96F
MASON          PTCLDY    62  56  82 CALM      29.97F
MONROE         MOCLDY    64  63  94 CALM      29.97S
MT. CLEMENS    CLOUDY    71  54  56 VRB7      29.96R
PONTIAC        CLOUDY    67  53  61 SW5       29.97S
PORT HOPE        N/A     67  55  65 CALM      29.92S
PORT HURON     MOCLDY    63  59  88 CALM      29.97R
TRI CITIES     CLOUDY    69  59  70 SW6       29.95R
TROY           MOCLDY    69  54  57 SW3       29.98F
SAGINAW HB     MOCLDY    68  55  64 SW7       29.94S
$$
MIZ043>046-050>051-056>058-064>065-071>073-077>080-260500-
SOUTHWEST LOWER MICHIGAN

CITY           SKY/WX    TMP DP  RH WIND       PRES   REMARKS
BATTLE CREEK   PTCLDY    65  58  78 S3        29.98R
BENTON HARBOR  CLOUDY    65  58  78 S3        29.96S
BIG RAPIDS     CLEAR     62  55  80 SW3       29.93S
COLDWATER      CLEAR     63  60  90 CALM      29.98S
FREMONT        FAIR      61  58  91 CALM      29.93S
HOLLAND        CLOUDY    64  61  90 S6        29.95F
GRAND RAPIDS   PTCLDY    65  59  81 S7        29.96R
IONIA          FAIR      64  56  76 SW6       29.95R
KALAMAZOO      CLEAR     64  58  80 S7        29.97S
LUDINGTON      CLOUDY    69  62  77 S9        29.91S
MARSHALL       CLEAR     61  59  92 CALM      29.97S
MOUNT PLEASANT CLOUDY    66  56  68 S5        29.93S
MUSKEGON       CLEAR     68  59  73 S8        29.94S
SOUTH HAVEN    CLOUDY    65  61  87 S3        29.96S
$$
MIZ016>042-260500-
NORTHERN LOWER MICHIGAN

CITY           SKY/WX    TMP DP  RH WIND       PRES   REMARKS
ALPENA         MOCLDY    68  56  65 SW3       29.90S
BEAVER ISLAND  CLOUDY    64  60  86 SW7G16    29.86F
BELLAIRE       CLOUDY    67  55  65 S5        29.88F
CADILLAC       MOCLDY    63  58  82 SW9       29.92S
CHARLEVOIX     CLOUDY    67  58  71 SW5       29.90F
FRANKFORT      CLOUDY    68  56  67 S9        29.88F
GAYLORD        CLOUDY    63  55  75 S7        29.91S
GRAYLING       CLOUDY    67  57  71 S3        29.92R
HARBOR SPRINGS MOCLDY    63  60  88 CALM      29.87F
HOUGHTON LAKE  CLOUDY    66  55  67 S7        29.93S
MANISTEE       CLOUDY    64  55  72 S6        29.90F
OSCODA         MOCLDY    66  58  73 CALM      29.90F
PELLSTON       PTCLDY    62  58  86 CALM      29.87F
ROGERS CITY    LGT RAIN  66  59  78 CALM      29.89F
TRAVERSE CITY  CLOUDY    68  56  65 SW3       29.87F
$$
MIZ007>008-015-260500-
EASTERN UPPER MICHIGAN

CITY           SKY/WX    TMP DP  RH WIND       PRES   REMARKS
KINROSS        CLOUDY    61  61 100 S3        29.86S
MACKINAC ISLAN MOCLDY    63  57  81 SW8       29.85F
NEWBERRY       CLOUDY    58  56  94 S13       29.83S
S. S. MARIE    CLOUDY    63  56  78 SW3       29.85S
MUNISING         N/A     65  58  78 SW9       29.79F
$$
MIZ004>006-011>014-085-260500-
CENTRAL UPPER MICHIGAN

CITY           SKY/WX    TMP DP  RH WIND       PRES   REMARKS
MANISTIQUE     CLOUDY    59  57  95 S10       29.83F
ESCANABA       PTCLDY    64  57  77 S6        29.82F
MENOMINEE      PTCLDY    66  59  77 SW3       29.83S
SAWYER-GWINN   CLOUDY    66  61  82 S7        29.81F
$$
MIZ001>003-009>011-084-260500-
WESTERN UPPER MICHIGAN

CITY           SKY/WX    TMP DP  RH WIND       PRES   REMARKS
IRON MOUNTAIN  CLOUDY    65  61  87 S7        29.82F
HOUGHTON       CLOUDY    66  63  90 CALM      29.79R
COPPER HARBOR    N/A     64  60  87 CALM      29.77S
$$

ABBREVIATIONS USED IN REMARKS
   TC - TEMPERATURE IN CELSIUS
  WCI - WIND CHILL INDEX
   HX - HEAT INDEX
  VSB - VISIBILITY




USA.gov is the U.S. government's official web portal to all federal, state and local government web resources and services.